Date String (YYYY-MM-DD hh:mm:ss) UTC,Instrument flags,absolute air pressure of the measurement (hPa),sample flow rate (lpm),inlet stack bypass flow (lpm),air temperature of the measurement (°C),ambient temperature measured by the external sensor (°C),aerosol sample conditioner tube jacket temperature (°C),OPC LED temperature (°C),internal box temperature (°C),relative humidity of the measurement (%),span deviation,mass concentration of particles derived from Lorenz-Mie calculation of OPC scattering (μg/m³),mass concentration of particles derived from Lorenz-Mie calculation of OPC scattering (μg/m³),mass concentration of particles derived from Lorenz-Mie calculation of OPC scattering (μg/m³)
DateTimeUTC,F1_M11,P_M11,Q1_M11,Q2_M11,T1_M11,T2_M11,T3_M11,T4_M11,T5_M11,U1_M11,ZSPAN_M11,X0_M11,X2_M11,X1_M11
2024-05-27 20:00:00,SystemResetWarning,0832.0,5.01,000.00,030.5,029.9,000.0,038.7,032.2,013.4,0000.0,0010.39,0003.78,0003.22
2024-05-27 20:01:00,SystemResetWarning,0832.0,5.00,000.00,030.6,029.9,000.0,038.7,032.2,012.9,0000.0,0010.39,0003.79,0003.21
2024-05-27 20:02:00,SystemResetWarning,0832.0,4.99,000.00,030.6,030.0,000.0,038.7,032.3,013.6,0000.0,0010.38,0003.81,0003.21
2024-05-27 20:03:00,SystemResetWarning,0832.0,4.99,000.00,030.6,030.0,000.0,038.8,032.3,013.4,0000.0,0010.99,0003.78,0003.20
2024-05-27 20:04:00,SystemResetWarning,0832.0,5.01,000.00,030.6,030.0,000.0,038.8,032.4,013.6,0000.0,0010.84,0003.78,0003.20
2024-05-27 20:05:00,SystemResetWarning,0832.1,5.02,000.00,030.7,030.1,000.0,038.8,032.4,013.4,0000.0,0011.18,0003.80,0003.19
2024-05-27 20:06:00,SystemResetWarning,0832.0,4.99,000.00,030.7,030.1,000.0,038.8,032.4,013.5,0000.0,0011.33,0003.81,0003.19
2024-05-27 20:07:00,SystemResetWarning,0832.0,4.99,000.00,030.5,028.4,000.0,038.9,031.6,013.0,0000.0,0011.37,0003.81,0003.18
2024-05-27 20:08:00,SystemResetWarning,0831.9,5.01,000.00,030.1,027.0,000.0,038.9,030.9,013.5,0000.0,0012.23,0003.80,0003.19
2024-05-27 20:09:00,SystemResetWarning,0831.9,5.01,000.00,030.0,027.2,000.0,038.8,030.8,013.3,0000.0,0013.05,0003.81,0003.19
2024-05-27 20:10:00,SystemResetWarning,0831.8,5.00,000.00,029.9,027.6,000.0,038.7,031.0,013.8,0000.0,0012.97,0003.83,0003.18
2024-05-27 20:11:00,SystemResetWarning,0831.9,5.00,000.00,029.9,027.9,000.0,038.6,031.2,013.7,0000.0,0011.94,0003.81,0003.17
2024-05-27 20:12:00,SystemResetWarning,0831.8,5.00,000.00,030.0,028.3,000.0,038.6,031.4,013.7,0000.0,0011.87,0003.79,0003.18
2024-05-27 20:13:00,SystemResetWarning,0831.8,5.00,000.00,030.0,028.5,000.0,038.5,031.5,014.2,0000.0,0011.62,0003.73,0003.17
2024-05-27 20:14:00,SystemResetWarning,0831.8,5.01,000.00,030.0,028.8,000.0,038.5,031.6,013.8,0000.0,0010.71,0003.73,0003.16
2024-05-27 20:15:00,SystemResetWarning,0831.8,5.01,000.00,030.1,028.9,000.0,038.5,031.7,014.2,0000.0,0010.18,0003.74,0003.16
2024-05-27 20:16:00,SystemResetWarning,0831.9,4.99,000.00,030.1,029.1,000.0,038.5,031.8,013.2,0000.0,0010.93,0003.73,0003.16
2024-05-27 20:17:00,SystemResetWarning,0831.9,5.00,000.00,030.1,029.3,000.0,038.5,031.9,013.1,0000.0,0011.43,0003.72,0003.16
2024-05-27 20:18:00,SystemResetWarning,0831.9,5.01,000.00,030.2,029.4,000.0,038.5,031.9,013.6,0000.0,0011.79,0003.72,0003.16
2024-05-27 20:19:00,SystemResetWarning,0831.8,5.00,000.00,030.2,029.5,000.0,038.5,032.0,012.9,0000.0,0011.19,0003.73,0003.16
2024-05-27 20:20:00,SystemResetWarning,0831.8,5.00,000.00,030.3,029.6,000.0,038.5,032.0,013.2,0000.0,0009.56,0003.75,0003.17
2024-05-27 20:21:00,SystemResetWarning,0831.8,4.99,000.00,030.3,029.6,000.0,038.5,032.0,013.6,0000.0,0009.43,0003.74,0003.18
2024-05-27 20:22:00,SystemResetWarning,0831.8,4.99,000.00,030.4,029.7,000.0,038.6,032.1,013.5,0000.0,0009.53,0003.78,0003.19
2024-05-27 20:23:00,SystemResetWarning,0832.0,4.99,000.00,030.4,029.8,000.0,038.6,032.1,014.1,0000.0,0009.60,0003.81,0003.19
2024-05-27 20:24:00,SystemResetWarning,0832.0,5.00,000.00,030.4,029.8,000.0,038.6,032.2,013.7,0000.0,0009.43,0003.83,0003.19
2024-05-27 20:25:00,SystemResetWarning,0831.8,5.01,000.00,030.5,029.9,000.0,038.6,032.2,013.3,0000.0,0009.89,0003.83,0003.19
2024-05-27 20:26:00,SystemResetWarning,0831.8,5.01,000.00,030.5,029.9,000.0,038.7,032.2,013.4,0000.0,0010.05,0003.85,0003.20
2024-05-27 20:27:00,SystemResetWarning,0831.8,5.01,000.00,030.5,029.9,000.0,038.7,032.2,013.0,0000.0,0009.06,0003.85,0003.20
2024-05-27 20:28:00,SystemResetWarning,0831.8,5.00,000.00,030.6,030.0,000.0,038.7,032.3,013.2,0000.0,0008.38,0003.85,0003.21
2024-05-27 20:29:00,SystemResetWarning,0832.1,5.00,000.00,030.6,030.0,000.0,038.7,032.3,012.8,0000.0,0007.96,0003.86,0003.20
2024-05-27 20:30:00,SystemResetWarning,0832.0,5.00,000.00,030.7,030.1,000.0,038.7,032.3,013.2,0000.0,0007.95,0003.86,0003.21
2024-05-27 20:31:00,SystemResetWarning,0832.0,4.99,000.00,030.7,029.6,000.0,038.8,032.1,013.8,0000.0,0007.93,0003.89,0003.20
2024-05-27 20:32:00,SystemResetWarning,0831.7,5.02,000.00,030.3,027.3,000.0,038.9,031.0,013.7,0000.0,0008.03,0003.90,0003.19
2024-05-27 20:33:00,SystemResetWarning,0831.6,5.01,000.00,030.0,027.0,000.0,038.8,030.8,014.1,0000.0,0008.48,0003.85,0003.18
2024-05-27 20:34:00,SystemResetWarning,0831.6,5.00,000.00,029.9,027.3,000.0,038.7,030.9,013.9,0000.0,0008.60,0003.79,0003.18
2024-05-27 20:35:00,SystemResetWarning,0831.6,4.99,000.00,029.9,027.7,000.0,038.6,031.1,013.9,0000.0,0009.34,0003.75,0003.17
2024-05-27 20:36:00,SystemResetWarning,0831.6,5.01,000.00,029.9,028.1,000.0,038.5,031.3,014.6,0000.0,0010.53,0003.80,0003.17
2024-05-27 20:37:00,SystemResetWarning,0831.6,5.00,000.00,029.9,028.4,000.0,038.5,031.5,014.1,0000.0,0010.43,0003.80,0003.17
2024-05-27 20:38:00,SystemResetWarning,0831.7,5.00,000.00,030.0,028.6,000.0,038.5,031.6,014.5,0000.0,0010.35,0003.77,0003.17
2024-05-27 20:39:00,SystemResetWarning,0831.7,5.01,000.00,030.0,028.8,000.0,038.4,031.7,013.9,0000.0,0010.28,0003.75,0003.16
2024-05-27 20:40:00,SystemResetWarning,0831.7,5.00,000.00,030.1,029.0,000.0,038.4,031.7,013.5,0000.0,0010.45,0003.77,0003.17
2024-05-27 20:41:00,SystemResetWarning,0831.7,5.00,000.00,030.1,029.2,000.0,038.4,031.8,013.7,0000.0,0010.57,0003.76,0003.16
2024-05-27 20:42:00,SystemResetWarning,0831.7,4.99,000.00,030.1,029.3,000.0,038.5,031.9,013.5,0000.0,0010.51,0003.72,0003.16
2024-05-27 20:43:00,SystemResetWarning,0831.7,4.99,000.00,030.2,029.4,000.0,038.5,031.9,013.9,0000.0,0010.44,0003.69,0003.14
2024-05-27 20:44:00,SystemResetWarning,0831.7,5.01,000.00,030.2,029.5,000.0,038.5,032.0,013.2,0000.0,0010.08,0003.69,0003.13
2024-05-27 20:45:00,SystemResetWarning,0831.7,5.01,000.00,030.3,029.6,000.0,038.5,032.0,013.3,0000.0,0010.34,0003.71,0003.13
2024-05-27 20:46:00,SystemResetWarning,0831.6,5.00,000.00,030.3,029.7,000.0,038.5,032.0,013.5,0000.0,0009.77,0003.75,0003.13
2024-05-27 20:47:00,SystemResetWarning,0831.6,4.99,000.00,030.4,029.7,000.0,038.6,032.1,013.1,0000.0,0008.27,0003.73,0003.14
2024-05-27 20:48:00,SystemResetWarning,0831.6,4.99,000.00,030.4,029.8,000.0,038.6,032.1,013.1,0000.0,0008.05,0003.69,0003.13
2024-05-27 20:49:00,SystemResetWarning,0831.6,5.01,000.00,030.5,029.9,000.0,038.6,032.2,013.5,0000.0,0008.05,0003.69,0003.12
2024-05-27 20:50:00,SystemResetWarning,0831.6,5.01,000.00,030.5,029.9,000.0,038.6,032.2,013.3,0000.0,0008.19,0003.71,0003.13
2024-05-27 20:51:00,SystemResetWarning,0831.6,5.00,000.00,030.5,030.0,000.0,038.7,032.3,013.4,0000.0,0008.14,0003.70,0003.13
2024-05-27 20:52:00,SystemResetWarning,0831.6,4.98,000.00,030.6,030.0,000.0,038.7,032.3,013.1,0000.0,0009.06,0003.72,0003.13
2024-05-27 20:53:00,SystemResetWarning,0831.5,5.00,000.00,030.5,029.2,000.0,038.8,031.8,013.8,0000.0,0009.40,0003.74,0003.13
2024-05-27 20:54:00,SystemResetWarning,0831.4,5.00,000.00,030.1,027.0,000.0,038.8,030.8,013.7,0000.0,0010.07,0003.78,0003.15
2024-05-27 20:55:00,SystemResetWarning,0831.5,5.02,000.00,029.9,026.9,000.0,038.8,030.7,014.1,0000.0,0010.76,0003.85,0003.17
2024-05-27 20:56:00,SystemResetWarning,0831.5,5.00,000.00,029.8,027.3,000.0,038.6,030.8,014.4,0000.0,0010.40,0003.84,0003.18
2024-05-27 20:57:00,SystemResetWarning,0831.5,4.99,000.00,029.8,027.7,000.0,038.5,031.0,014.0,0000.0,0010.07,0003.85,0003.19
2024-05-27 20:58:00,SystemResetWarning,0831.5,5.00,000.00,029.8,028.0,000.0,038.4,031.2,014.4,0000.0,0010.11,0003.88,0003.20
2024-05-27 20:59:00,SystemResetWarning,0831.5,5.00,000.00,029.9,028.4,000.0,038.4,031.4,014.1,0000.0,0010.35,0003.89,0003.21
